Time,TemperatureF,DewpointF,PressureIn,WindDirection,WindDirectionDegrees,WindSpeedMPH,WindSpeedGustMPH,Humidity,HourlyPrecipIn,Conditions,Clouds,dailyrainin,SoftwareType,DateUTC
2013-01-13 00:23:00,40.0,39.0,-100.00,SSW,205,3.0,6.0,93,-99.99,,,-99.99,,2013-01-13 05:23:00,
2013-01-13 00:32:00,40.0,39.0,-100.00,SSW,200,2.0,3.0,93,-99.99,,,-99.99,,2013-01-13 05:32:00,
2013-01-13 00:42:00,40.0,39.0,-100.00,SW,225,3.0,5.0,93,-99.99,,,-99.99,,2013-01-13 05:42:00,
2013-01-13 00:52:00,41.0,39.0,-100.00,WSW,240,3.0,6.0,93,-99.99,,,-99.99,,2013-01-13 05:52:00,
2013-01-13 01:03:00,41.0,39.0,-100.00,SW,235,5.0,7.0,93,-99.99,,,-99.99,,2013-01-13 06:03:00,
2013-01-13 01:12:00,41.0,39.0,-100.00,WSW,240,6.0,8.0,93,-99.99,,,-99.99,,2013-01-13 06:12:00,
2013-01-13 01:22:00,41.0,39.0,-100.00,SW,225,2.0,7.0,93,-99.99,,,-99.99,,2013-01-13 06:22:00,
2013-01-13 01:32:00,41.0,39.0,-100.00,SW,230,3.0,6.0,93,-99.99,,,-99.99,,2013-01-13 06:32:00,
2013-01-13 01:42:00,41.0,39.0,-100.00,SW,220,5.0,7.0,93,-99.99,,,-99.99,,2013-01-13 06:42:00,
2013-01-13 01:52:00,41.0,39.0,-100.00,WSW,240,5.0,10.0,93,-99.99,,,-99.99,,2013-01-13 06:52:00,
2013-01-13 02:02:00,41.0,39.0,-100.00,East,95,8.0,12.0,93,-99.99,,,-99.99,,2013-01-13 07:02:00,
2013-01-13 02:12:00,41.0,39.0,-100.00,WSW,240,5.0,10.0,93,-99.99,,,-99.99,,2013-01-13 07:12:00,
2013-01-13 02:22:00,41.0,39.0,-100.00,SW,235,2.0,12.0,93,-99.99,,,-99.99,,2013-01-13 07:22:00,
2013-01-13 02:32:00,41.0,39.0,-100.00,SSW,195,2.0,5.0,93,-99.99,,,-99.99,,2013-01-13 07:32:00,
2013-01-13 02:42:00,41.0,39.0,-100.00,SW,215,2.0,5.0,93,-99.99,,,-99.99,,2013-01-13 07:42:00,
2013-01-13 02:52:00,41.0,39.0,-100.00,SW,230,3.0,6.0,93,-99.99,,,-99.99,,2013-01-13 07:52:00,
2013-01-13 03:02:00,41.0,39.0,-100.00,SSW,200,3.0,8.0,93,-99.99,,,-99.99,,2013-01-13 08:02:00,
2013-01-13 03:12:00,41.0,39.0,-100.00,SW,225,3.0,7.0,93,-99.99,,,-99.99,,2013-01-13 08:12:00,
2013-01-13 03:22:00,41.0,39.0,-100.00,SW,230,3.0,7.0,93,-99.99,,,-99.99,,2013-01-13 08:22:00,
2013-01-13 03:32:00,41.0,39.0,-100.00,SW,235,5.0,8.0,93,-99.99,,,-99.99,,2013-01-13 08:32:00,
2013-01-13 03:42:00,41.0,39.0,-100.00,SW,230,3.0,9.0,93,-99.99,,,-99.99,,2013-01-13 08:42:00,
2013-01-13 03:52:00,41.0,39.0,-100.00,SW,235,5.0,9.0,93,-99.99,,,-99.99,,2013-01-13 08:52:00,
2013-01-13 04:02:00,41.0,39.0,-100.00,WSW,245,5.0,8.0,93,-99.99,,,-99.99,,2013-01-13 09:02:00,
2013-01-13 04:12:00,41.0,39.0,-100.00,SW,230,5.0,8.0,93,-99.99,,,-99.99,,2013-01-13 09:12:00,
2013-01-13 04:22:00,41.0,39.0,-100.00,WSW,245,5.0,7.0,93,-99.99,,,-99.99,,2013-01-13 09:22:00,
2013-01-13 04:32:00,41.0,39.0,-100.00,WSW,240,5.0,9.0,93,-99.99,,,-99.99,,2013-01-13 09:32:00,
2013-01-13 04:42:00,41.0,39.0,-100.00,WSW,240,5.0,8.0,93,-99.99,,,-99.99,,2013-01-13 09:42:00,
2013-01-13 04:52:00,41.0,39.0,-100.00,SW,230,5.0,8.0,93,-99.99,,,-99.99,,2013-01-13 09:52:00,
2013-01-13 05:03:00,41.0,39.0,-100.00,SW,230,5.0,8.0,93,-99.99,,,-99.99,,2013-01-13 10:03:00,
2013-01-13 05:12:00,41.0,39.0,-100.00,SW,225,2.0,5.0,93,-99.99,,,-99.99,,2013-01-13 10:12:00,
2013-01-13 05:22:00,41.0,39.0,-100.00,South,185,2.0,5.0,93,-99.99,,,-99.99,,2013-01-13 10:22:00,
2013-01-13 05:32:00,41.0,39.0,-100.00,WSW,240,1.0,3.0,93,-99.99,,,-99.99,,2013-01-13 10:32:00,
2013-01-13 05:42:00,41.0,39.0,-100.00,SW,230,2.0,2.0,93,-99.99,,,-99.99,,2013-01-13 10:42:00,
2013-01-13 05:52:00,41.0,39.0,-100.00,SW,220,2.0,5.0,93,-99.99,,,-99.99,,2013-01-13 10:52:00,
2013-01-13 06:52:00,41.0,39.0,-100.00,NNE,25,1.0,2.0,93,-99.99,,,-99.99,,2013-01-13 11:52:00,
2013-01-13 08:12:00,41.0,39.0,-100.00,WSW,255,2.0,5.0,93,-99.99,,,-99.99,,2013-01-13 13:12:00,
2013-01-13 08:22:00,41.0,39.0,-100.00,SW,235,3.0,5.0,93,-99.99,,,-99.99,,2013-01-13 13:22:00,
2013-01-13 08:33:00,41.0,39.0,-100.00,WSW,245,5.0,5.0,93,-99.99,,,-99.99,,2013-01-13 13:33:00,
2013-01-13 08:42:00,41.0,39.0,-100.00,SSE,165,2.0,5.0,93,-99.99,,,-99.99,,2013-01-13 13:42:00,
2013-01-13 08:53:00,41.0,39.0,-100.00,WSW,255,1.0,3.0,93,-99.99,,,-99.99,,2013-01-13 13:53:00,
2013-01-13 09:03:00,42.0,40.0,-100.00,WSW,240,2.0,3.0,93,-99.99,,,-99.99,,2013-01-13 14:03:00,
2013-01-13 09:13:00,42.0,40.0,-100.00,WSW,245,3.0,5.0,93,-99.99,,,-99.99,,2013-01-13 14:13:00,
2013-01-13 09:22:00,42.0,40.0,-100.00,WSW,240,3.0,5.0,93,-99.99,,,-99.99,,2013-01-13 14:22:00,
2013-01-13 09:33:00,42.0,40.0,-100.00,SW,235,2.0,5.0,93,-99.99,,,-99.99,,2013-01-13 14:33:00,
2013-01-13 09:43:00,42.0,40.0,-100.00,SW,230,3.0,7.0,93,-99.99,,,-99.99,,2013-01-13 14:43:00,
2013-01-13 09:53:00,43.0,41.0,-100.00,SW,235,5.0,7.0,93,-99.99,,,-99.99,,2013-01-13 14:53:00,
2013-01-13 10:03:00,43.0,41.0,-100.00,SSW,205,2.0,8.0,93,-99.99,,,-99.99,,2013-01-13 15:03:00,
2013-01-13 10:13:00,43.0,41.0,-100.00,SW,235,6.0,8.0,93,-99.99,,,-99.99,,2013-01-13 15:13:00,
2013-01-13 10:23:00,43.0,41.0,-100.00,SW,235,5.0,8.0,93,-99.99,,,-99.99,,2013-01-13 15:23:00,
2013-01-13 10:33:00,43.0,41.0,-100.00,SW,230,3.0,10.0,93,-99.99,,,-99.99,,2013-01-13 15:33:00,
2013-01-13 10:43:00,43.0,41.0,-100.00,WSW,245,2.0,7.0,93,-99.99,,,-99.99,,2013-01-13 15:43:00,
2013-01-13 10:52:00,44.0,42.0,-100.00,WSW,245,3.0,9.0,93,-99.99,,,-99.99,,2013-01-13 15:52:00,
2013-01-13 11:04:00,44.0,42.0,-100.00,WSW,245,3.0,9.0,93,-99.99,,,-99.99,,2013-01-13 16:04:00,
2013-01-13 11:13:00,44.0,42.0,-100.00,WSW,245,5.0,9.0,93,-99.99,,,-99.99,,2013-01-13 16:13:00,
2013-01-13 11:23:00,44.0,42.0,-100.00,WSW,245,5.0,9.0,93,-99.99,,,-99.99,,2013-01-13 16:23:00,
2013-01-13 11:33:00,45.0,43.0,-100.00,SW,215,5.0,7.0,93,-99.99,,,-99.99,,2013-01-13 16:33:00,
2013-01-13 11:43:00,45.0,43.0,-100.00,SW,235,7.0,13.0,93,-99.99,,,-99.99,,2013-01-13 16:43:00,
2013-01-13 11:53:00,45.0,43.0,-100.00,SW,235,5.0,12.0,93,-99.99,,,-99.99,,2013-01-13 16:53:00,
2013-01-13 12:03:00,45.0,44.0,-100.00,SW,230,5.0,9.0,93,-99.99,,,-99.99,,2013-01-13 17:03:00,
2013-01-13 12:13:00,45.0,43.0,-100.00,SSW,205,2.0,8.0,93,-99.99,,,-99.99,,2013-01-13 17:13:00,
2013-01-13 12:22:00,45.0,43.0,-100.00,SSW,205,2.0,8.0,93,-99.99,,,-99.99,,2013-01-13 17:22:00,
2013-01-13 12:33:00,45.0,43.0,-100.00,SW,230,3.0,9.0,93,-99.99,,,-99.99,,2013-01-13 17:33:00,
2013-01-13 12:43:00,45.0,43.0,-100.00,WSW,255,5.0,8.0,93,-99.99,,,-99.99,,2013-01-13 17:43:00,
2013-01-13 12:53:00,46.0,44.0,-100.00,SW,220,2.0,9.0,93,-99.99,,,-99.99,,2013-01-13 17:53:00,
2013-01-13 13:03:00,46.0,44.0,-100.00,SW,230,2.0,7.0,93,-99.99,,,-99.99,,2013-01-13 18:03:00,
2013-01-13 13:12:00,46.0,44.0,-100.00,SW,230,3.0,7.0,93,-99.99,,,-99.99,,2013-01-13 18:12:00,
2013-01-13 13:23:00,47.0,45.0,-100.00,SE,140,2.0,6.0,94,-99.99,,,-99.99,,2013-01-13 18:23:00,
2013-01-13 13:33:00,47.0,45.0,-100.00,SW,235,6.0,8.0,93,-99.99,,,-99.99,,2013-01-13 18:33:00,
2013-01-13 13:43:00,47.0,47.0,-100.00,SW,215,5.0,9.0,100,-99.99,,,-99.99,,2013-01-13 18:43:00,
2013-01-13 13:53:00,47.0,46.0,-100.00,WSW,240,5.0,10.0,94,-99.99,,,-99.99,,2013-01-13 18:53:00,
2013-01-13 14:03:00,47.0,47.0,-100.00,SSW,210,2.0,9.0,100,-99.99,,,-99.99,,2013-01-13 19:03:00,
2013-01-13 14:12:00,47.0,47.0,-100.00,WSW,240,6.0,8.0,100,-99.99,,,-99.99,,2013-01-13 19:12:00,
2013-01-13 14:23:00,47.0,47.0,-100.00,SW,220,3.0,8.0,100,-99.99,,,-99.99,,2013-01-13 19:23:00,
2013-01-13 14:53:00,48.0,47.0,-100.00,WSW,245,5.0,7.0,99,-99.99,,,-99.99,,2013-01-13 19:53:00,
2013-01-13 15:33:00,48.0,48.0,-100.00,WSW,240,5.0,8.0,99,-99.99,,,-99.99,,2013-01-13 20:33:00,
2013-01-13 16:03:00,48.0,48.0,-100.00,SW,230,2.0,8.0,100,-99.99,,,-99.99,,2013-01-13 21:03:00,
2013-01-13 16:13:00,48.0,48.0,-100.00,SW,225,2.0,6.0,99,-99.99,,,-99.99,,2013-01-13 21:13:00,
2013-01-13 16:23:00,48.0,48.0,-100.00,SW,215,5.0,6.0,99,-99.99,,,-99.99,,2013-01-13 21:23:00,
2013-01-13 16:30:00,49.0,49.0,-100.00,SSW,195,1.0,6.0,100,-99.99,,,-99.99,,2013-01-13 21:30:00,
2013-01-13 16:33:00,48.0,48.0,-100.00,SSE,155,2.0,8.0,99,-99.99,,,-99.99,,2013-01-13 21:33:00,
2013-01-13 16:43:00,48.0,48.0,-100.00,SSW,195,2.0,8.0,100,-99.99,,,-99.99,,2013-01-13 21:43:00,
2013-01-13 16:52:00,48.0,48.0,-100.00,SSW,195,2.0,5.0,99,-99.99,,,-99.99,,2013-01-13 21:52:00,
2013-01-13 17:03:00,48.0,48.0,-100.00,SSW,195,2.0,5.0,99,-99.99,,,-99.99,,2013-01-13 22:03:00,
2013-01-13 17:13:00,49.0,49.0,-100.00,SSW,195,1.0,6.0,100,-99.99,,,-99.99,,2013-01-13 22:13:00,
2013-01-13 17:23:00,49.0,49.0,-100.00,SSW,195,1.0,6.0,100,-99.99,,,-99.99,,2013-01-13 22:23:00,
2013-01-13 17:53:00,48.0,48.0,-100.00,SSE,165,3.0,6.0,99,-99.99,,,-99.99,,2013-01-13 22:53:00,
2013-01-13 18:03:00,48.0,48.0,-100.00,SSW,205,3.0,6.0,99,-99.99,,,-99.99,,2013-01-13 23:03:00,
2013-01-13 18:12:00,48.0,48.0,-100.00,South,185,2.0,5.0,99,-99.99,,,-99.99,,2013-01-13 23:12:00,
2013-01-13 18:23:00,48.0,48.0,-100.00,SW,225,2.0,6.0,99,-99.99,,,-99.99,,2013-01-13 23:23:00,
2013-01-13 18:33:00,48.0,48.0,-100.00,SSW,195,5.0,8.0,99,-99.99,,,-99.99,,2013-01-13 23:33:00,
2013-01-13 18:43:00,49.0,48.0,-100.00,South,190,6.0,10.0,99,-99.99,,,-99.99,,2013-01-13 23:43:00,
2013-01-13 18:53:00,49.0,48.0,-100.00,South,190,6.0,10.0,99,-99.99,,,-99.99,,2013-01-13 23:53:00,
2013-01-13 19:03:00,49.0,48.0,-100.00,SW,230,3.0,10.0,99,-99.99,,,-99.99,,2013-01-14 00:03:00,
2013-01-13 19:13:00,49.0,49.0,-100.00,SSW,210,3.0,10.0,99,-99.99,,,-99.99,,2013-01-14 00:13:00,
2013-01-13 19:23:00,49.0,49.0,-100.00,SW,225,6.0,10.0,98,-99.99,,,-99.99,,2013-01-14 00:23:00,
2013-01-13 19:43:00,49.0,49.0,-100.00,WSW,245,5.0,9.0,99,-99.99,,,-99.99,,2013-01-14 00:43:00,
2013-01-13 19:52:00,49.0,49.0,-100.00,WSW,245,5.0,9.0,99,-99.99,,,-99.99,,2013-01-14 00:52:00,
2013-01-13 20:03:00,49.0,48.0,-100.00,SW,235,6.0,7.0,99,-99.99,,,-99.99,,2013-01-14 01:03:00,
2013-01-13 20:13:00,49.0,48.0,-100.00,SW,235,3.0,9.0,99,-99.99,,,-99.99,,2013-01-14 01:13:00,
2013-01-13 20:22:00,49.0,49.0,-100.00,SW,235,3.0,7.0,99,-99.99,,,-99.99,,2013-01-14 01:22:00,
2013-01-13 20:33:00,49.0,49.0,-100.00,SW,235,7.0,12.0,99,-99.99,,,-99.99,,2013-01-14 01:33:00,
2013-01-13 20:42:00,49.0,49.0,-100.00,SW,235,6.0,10.0,98,-99.99,,,-99.99,,2013-01-14 01:42:00,
2013-01-13 20:52:00,49.0,49.0,-100.00,SW,235,6.0,10.0,98,-99.99,,,-99.99,,2013-01-14 01:52:00,
2013-01-13 21:03:00,50.0,49.0,-100.00,SW,230,7.0,12.0,97,-99.99,,,-99.99,,2013-01-14 02:03:00,
2013-01-13 21:12:00,50.0,49.0,-100.00,SSW,210,7.0,13.0,95,-99.99,,,-99.99,,2013-01-14 02:12:00,